Flag for Australia Weather past 2 weeks in Kalgoorlie, Western Australia, Australia

Now
70 °F

Clear.


Feels Like: 70 °F
Forecast: 64 / 90 °F
Wind: 3 mph from Southeast

Location: Kalgoorlie Boulder Amo

Current Time: Mar 29, 2015 at 9:28:01 PM

Latest Report: Mar 29, 2015 at 8:30 PM


Visibility: N/A

Pressure: 30.15 "Hg

Humidity: 53%

Dew point: 52 °F

Location of KalgoorlieLocation

Historic Weather in Kalgoorlie — Graph

°F

Kalgoorlie temperature yesterday

Maximum temperature yesterday: 75 °F (at 3:00 PM)
Minimum temperature yesterday: 57 °F (at 12:00 AM)
Average temperature yesterday: 65 °F

Past Weeks' High & Low Weather Summary

 TemperatureHumidityPressure
High102 °F (Mar 21, 1:00 PM)100% (Mar 27, 8:00 PM)30.39 "Hg (Mar 27, 8:00 PM)
Low50 °F (Mar 23, 5:30 AM)10% (Mar 21, 5:00 PM)29.68 "Hg (Mar 18, 1:00 PM)
Average71 °F48%30.06 "Hg
* Reported Mar 14 8:00 PM — Mar 29 8:00 PM, Kalgoorlie, Weather by CustomWeather, © 2015

Note: Actual official high and low records may vary slightly from our data, if they occured in-between our weather recording intervals... More about our weather records

Advertising

Kalgoorlie weather history for previous 24 hours

 ConditionsComfort  
Time TempWeatherWind HumidityBarometerVisibility
8:00 PM
Sun, Mar 29
70 °FClear.5 mph50%30.15 "HgN/A
7:30 PM72 °FClear.5 mph44%30.15 "HgN/A
7:00 PM73 °FClear.6 mph36%30.12 "HgN/A
6:30 PM73 °FClear.6 mph38%30.12 "HgN/A
6:00 PM77 °FClear.6 mph32%30.12 "HgN/A
5:30 PM79 °FClear.7 mph28%30.12 "HgN/A
5:00 PM79 °FClear.7 mph28%30.12 "HgN/A
4:30 PM81 °FSunny.8 mph26%30.12 "HgN/A
4:00 PM81 °FSunny.7 mph26%30.09 "HgN/A
3:30 PM81 °FSunny.8 mph26%30.09 "HgN/A
3:00 PM81 °FSunny.9 mph26%30.09 "Hg10 mi
2:00 PM81 °FSunny.6 mph28%30.12 "Hg10 mi
1:00 PM79 °FSunny.13 mph26%30.15 "Hg10 mi
12:30 PM79 °FSunny.9 mph28%30.15 "Hg10 mi
12:00 PM79 °FSunny.10 mph30%30.18 "Hg10 mi
11:00 AM77 °FPassing clouds.8 mph36%30.18 "HgN/A
10:30 AM75 °FPassing clouds.8 mph41%30.21 "HgN/A
10:00 AM73 °FSunny.8 mph50%30.21 "Hg10 mi
9:00 AM70 °FSunny.7 mph60%30.21 "Hg10 mi
8:30 AM66 °FSunny.8 mph68%30.21 "Hg10 mi
8:00 AM64 °FSunny.9 mph73%30.21 "Hg10 mi
7:30 AM63 °FSunny.5 mph77%30.21 "HgN/A
7:00 AM59 °FSunny.3 mph88%30.18 "Hg10 mi
6:30 AM57 °FSunny.3 mph88%30.18 "Hg10 mi
6:00 AM55 °FSunny.5 mph94%30.18 "Hg10 mi
5:30 AM57 °FSunny.5 mph88%30.18 "HgN/A
5:00 AM57 °FClear.6 mph88%30.15 "HgN/A
4:30 AM57 °FClear.5 mph88%30.15 "HgN/A
4:00 AM57 °FClear.5 mph88%30.15 "HgN/A
3:30 AM57 °FClear.6 mph88%30.15 "HgN/A
3:00 AM59 °FClear.5 mph82%30.12 "HgN/A
2:00 AM59 °FClear.6 mph88%30.12 "HgN/A
1:30 AM61 °FClear.7 mph83%30.12 "HgN/A
1:00 AM63 °FClear.5 mph73%30.12 "HgN/A
12:30 AM64 °FClear.5 mph68%30.12 "HgN/A
12:00 AM64 °FClear.5 mph68%30.12 "HgN/A
11:30 PM
Sat, Mar 28
64 °FClear.7 mph68%30.12 "HgN/A
11:00 PM66 °FClear.6 mph64%30.12 "HgN/A
10:30 PM64 °FClear.3 mph68%30.12 "HgN/A
10:00 PM66 °FClear.3 mph64%30.12 "HgN/A
9:00 PM66 °FClear.3 mph68%30.12 "HgN/A
Weather by CustomWeather, © 2015

See weather overviewHow to use our weather pages